THOR ABLESTAR DEB, 652

Orbit data source: Space-Track

THOR ABLESTAR DEB, 652 is space debris in LEO originally from a launch on Thu, 29 Jun 1961 UTC launched from the Air Force Eastern Test Range (AFETR). Debris objects in space refer to the collection of defunct objects orbiting the Earth. Examples of debris include non-operational satellites, rocket bodies, and fragments generated from explosions, collisions, or faulty payload assembly.

Loading next visibility...
Identifier
652, 1961-015HD
Orbit
LEO
Last TLE update
2 days ago
Origin
Manufacturer
Unknown
Mission
Spacecraft
Bus & Motor
Unknown
Mass
Unknown
Launch date (UTC)
1961-06-29 (64 years ago)
Launch vehicle
Unknown
Launch site
Air Force Eastern Test Range (AFETR)
Object type
Payload
Rocket body
Debris
Shape & HBR
Unknown
Radar Cross Section
Small (<0.1 m²)

Expand to show TLE details & history

TLE from 2 days ago
0 THOR ABLESTAR DEB
1 00652U 61015HD  25118.06981758  .00004718  00000-0  23113-2 0  9999
2 00652  66.7060  90.7284 0082103 292.9173  66.3268 14.16896862235010
Epoch: 2025-04-28T01:40Z
Definitive object data (Epoch: 2025-04-28T01:40:32.238Z)
Latitude
-0.00003°
Longitude
-150.69506°
Altitude
814.587 km
Speed
7.458 km/s
True Right ascension
06h 02m 54s
True Declination
0° 00' 00"
Sunlit
Object was in daylight at TLE epoch
Visualization TLE readout
Latitude
-28.4603°
Longitude
-169.15973°
Altitude
798.412 km
Speed
7.478 km/s
Apparent Right ascension
01h 33m 50s
Apparent Declination
-54° 22' 57"
Sunlit
Object is in daylight
Visualization observer readout
Local Sidereal Time
08:30:19
Azimuth
226.694° WSW
Elevation
-39.094°
Doppler factor
1
Orbital elements
Apogee altitude
893.466 km
Perigee altitude
775.035 km
Semi-major axis
7,212.388 km
Eccentricity
0.0082103
Inclination
66.706°
RAAN
90.7284°
Arg. of periapsis
292.9173°
True anomaly
67.19199°
Mean anomaly
66.3268°
Eccentric anomaly
66.75904°
Mean motion
3.54344 °/min
BSTAR
0.0023113
Orbital period
101.6 mins
Loading maneuver chart data...
Loading SW <> Apogee altitude chart data...

THOR ABLESTAR DEB Visibility forecast

Observer location: undefined°, undefined°

Span
Click to sort rows by Start time (UTC) header in descending order
Start Az.
Max El. time (UTC)
Max El. Az.
Max El.
End time (UTC)
End Az.
6 mins2025-04-30 01:19:52.212Z285.644° WNW2025-04-30 01:22:52.212Z319.833° NNW16.167°2025-04-30 01:25:52.212Z353.122° N
5 mins2025-04-30 06:43:52.212Z15.718° NNE2025-04-30 06:45:52.212Z37.882° NE15.045°2025-04-30 06:48:52.212Z70.423° E
10 mins2025-04-30 08:26:52.212Z335.094° NNW2025-04-30 08:31:52.212Z96.62° ESE43.823°2025-04-30 08:36:52.212Z145.916° SSE
4 mins2025-04-30 10:13:52.212Z272.739° WNW2025-04-30 10:14:52.212Z261.275° W15.06°2025-04-30 10:17:52.212Z228.021° WSW
10 mins2025-04-30 23:15:52.212Z206.867° SW2025-04-30 23:20:52.212Z33.438° NE44.147°2025-04-30 23:25:52.212Z29.526° NE
|